| time (UTC) | temp F | wind direction | speed knots | gust knots | rain 1hr in | rain 24hr in | rain mn in | humidity % | barometer mb |
| 20260508030005 | 53 | 135 | 5.2 | 7.8 | 0.00 | 0.00 | 0.00 | 90 | 1014.6 |
| 20260508024006 | 53 | 129 | 4.3 | 8.7 | 0.00 | 0.00 | 0.00 | 90 | 1014.7 |
| 20260508022006 | 53 | 135 | 2.6 | 7.0 | 0.00 | 0.00 | 0.00 | 90 | 1014.7 |
| 20260508021006 | 53 | 125 | 4.3 | 8.7 | 0.00 | 0.00 | 0.00 | 89 | 1014.6 |
| 20260508020006 | 53 | 141 | 4.3 | 7.8 | 0.00 | 0.00 | 0.00 | 89 | 1014.6 |
| 20260508015005 | 53 | 131 | 4.3 | 8.7 | 0.00 | 0.00 | 0.00 | 89 | 1014.6 |
| 20260508014006 | 53 | 139 | 5.2 | 10.4 | 0.00 | 0.00 | 0.00 | 89 | 1014.6 |
| 20260508012007 | 53 | 131 | 7.8 | 10.4 | 0.00 | 0.00 | 0.00 | 88 | 1014.8 |
| 20260508011006 | 53 | 138 | 5.2 | 10.4 | 0.00 | 0.00 | 0.00 | 87 | 1014.9 |
| 20260508010005 | 53 | 132 | 7.0 | 10.4 | 0.00 | 0.00 | 0.00 | 86 | 1015.0 |
| 20260508005006 | 52 | 128 | 7.0 | 13.0 | 0.00 | 0.00 | 0.00 | 85 | 1015.0 |
| 20260508004005 | 52 | 131 | 7.0 | 13.0 | 0.00 | 0.00 | 0.00 | 84 | 1014.9 |
| 20260508003006 | 52 | 130 | 6.1 | 10.4 | 0.00 | 0.00 | 0.00 | 86 | 1015.0 |
| 20260508002006 | 52 | 131 | 6.1 | 10.4 | 0.00 | 0.00 | 0.00 | 86 | 1015.0 |
| 20260508001006 | 52 | 134 | 6.1 | 10.4 | 0.00 | 0.00 | 0.00 | 86 | 1015.0 |
| 20260508000005 | 52 | 132 | 6.1 | 13.0 | 0.00 | 0.00 | 0.00 | 86 | 1015.0 |
| 20260507235006 | 52 | 129 | 7.8 | 10.4 | 0.00 | 0.00 | 0.00 | 86 | 1015.0 |
| 20260507234005 | 52 | 136 | 7.8 | 12.2 | 0.00 | 0.00 | 0.00 | 87 | 1015.2 |
| 20260507233005 | 52 | 131 | 8.7 | 13.0 | 0.00 | 0.00 | 0.00 | 87 | 1015.2 |
| 20260507232006 | 51 | 129 | 7.8 | 10.4 | 0.00 | 0.00 | 0.00 | 87 | 1015.3 |
| 20260507231006 | 51 | 130 | 7.8 | 10.4 | 0.00 | 0.00 | 0.00 | 87 | 1015.4 |
| 20260507230005 | 51 | 125 | 6.1 | 10.4 | 0.00 | 0.00 | 0.00 | 87 | 1015.4 |
| 20260507225005 | 50 | 134 | 4.3 | 8.7 | 0.00 | 0.00 | 0.00 | 87 | 1015.4 |
| 20260507224005 | 51 | 145 | 4.3 | 10.4 | 0.00 | 0.00 | 0.00 | 86 | 1015.5 |
| 20260507223005 | 50 | 132 | 5.2 | 10.4 | 0.00 | 0.00 | 0.00 | 87 | 1015.6 |
| 20260507222005 | 50 | 131 | 5.2 | 10.4 | 0.00 | 0.00 | 0.00 | 86 | 1015.6 |
| 20260507221005 | 50 | 131 | 5.2 | 10.4 | 0.00 | 0.00 | 0.00 | 87 | 1015.6 |
| 20260507220005 | 50 | 136 | 4.3 | 7.0 | 0.00 | 0.00 | 0.00 | 86 | 1015.6 |
| 20260507215005 | 51 | 132 | 5.2 | 10.4 | 0.00 | 0.00 | 0.00 | 86 | 1015.6 |
| 20260507214005 | 51 | 130 | 6.1 | 10.4 | 0.00 | 0.00 | 0.00 | 85 | 1015.7 |
| 20260507212005 | 51 | 137 | 4.3 | 8.7 | 0.00 | 0.00 | 0.00 | 86 | 1015.7 |
| 20260507211005 | 51 | 137 | 5.2 | 10.4 | 0.00 | 0.00 | 0.00 | 86 | 1015.7 |
| 20260507210006 | 50 | 139 | 4.3 | 10.4 | 0.00 | 0.00 | 0.00 | 87 | 1015.7 |
| 20260507205005 | 50 | 131 | 6.1 | 10.4 | 0.00 | 0.00 | 0.00 | 88 | 1015.6 |
| 20260507204005 | 50 | 136 | 2.6 | 7.0 | 0.00 | 0.00 | 0.00 | 89 | 1015.5 |
| 20260507203005 | 49 | 133 | 2.6 | 6.1 | 0.00 | 0.00 | 0.00 | 88 | 1015.6 |
| 20260507202005 | 50 | 129 | 4.3 | 7.0 | 0.00 | 0.00 | 0.00 | 87 | 1015.6 |
| 20260507201005 | 50 | 139 | 1.7 | 4.3 | 0.00 | 0.00 | 0.00 | 86 | 1015.5 |
| 20260507200005 | 50 | 136 | 2.6 | 7.0 | 0.00 | 0.00 | 0.00 | 86 | 1015.4 |
| 20260507195005 | 51 | 142 | 2.6 | 7.0 | 0.00 | 0.00 | 0.00 | 86 | 1015.2 |
| 20260507194005 | 51 | 135 | 5.2 | 7.0 | 0.00 | 0.00 | 0.00 | 85 | 1015.2 |
| 20260507192005 | 52 | 131 | 4.3 | 7.8 | 0.00 | 0.00 | 0.00 | 85 | 1015.0 |
| 20260507191005 | 52 | 136 | 5.2 | 10.4 | 0.00 | 0.00 | 0.00 | 84 | 1014.9 |
| 20260507190005 | 52 | 130 | 5.2 | 7.8 | 0.00 | 0.00 | 0.00 | 83 | 1014.9 |
| 20260507185006 | 53 | 130 | 5.2 | 7.8 | 0.00 | 0.00 | 0.00 | 83 | 1014.9 |
| 20260507184005 | 53 | 131 | 7.0 | 10.4 | 0.00 | 0.00 | 0.00 | 82 | 1014.8 |
| 20260507183005 | 54 | 133 | 6.1 | 10.4 | 0.00 | 0.00 | 0.00 | 81 | 1014.7 |
| 20260507182005 | 54 | 123 | 5.2 | 8.7 | 0.00 | 0.00 | 0.00 | 80 | 1014.8 |
| 20260507181005 | 54 | 129 | 6.1 | 10.4 | 0.00 | 0.00 | 0.00 | 80 | 1014.7 |
| 20260507180005 | 55 | 131 | 6.1 | 10.4 | 0.00 | 0.00 | 0.00 | 79 | 1014.7 |
| 20260507175005 | 56 | 129 | 5.2 | 10.4 | 0.00 | 0.00 | 0.00 | 77 | 1014.7 |
| 20260507174005 | 56 | 131 | 7.8 | 12.2 | 0.00 | 0.00 | 0.00 | 76 | 1014.7 |
| 20260507173005 | 57 | 140 | 7.8 | 10.4 | 0.00 | 0.00 | 0.00 | 75 | 1014.7 |
| 20260507171005 | 59 | 138 | 6.1 | 10.4 | 0.00 | 0.00 | 0.00 | 72 | 1014.6 |
| 20260507163005 | 60 | 132 | 6.1 | 10.4 | 0.00 | 0.00 | 0.00 | 70 | 1014.9 |
| 20260507161005 | 61 | 129 | 7.8 | 12.2 | 0.00 | 0.00 | 0.00 | 68 | 1014.9 |
| 20260507160005 | 61 | 130 | 6.1 | 10.4 | 0.00 | 0.00 | 0.00 | 70 | 1015.0 |
| 20260507155006 | 61 | 129 | 6.1 | 10.4 | 0.00 | 0.00 | 0.00 | 65 | 1015.0 |
| 20260507152005 | 62 | 130 | 6.1 | 10.4 | 0.00 | 0.00 | 0.00 | 67 | 1015.1 |
| 20260507145004 | 61 | 129 | 8.7 | 13.0 | 0.00 | 0.00 | 0.00 | 61 | 1015.1 |
| 20260507144004 | 62 | 131 | 8.7 | 12.2 | 0.00 | 0.00 | 0.00 | 62 | 1015.2 |
| 20260507143004 | 62 | 143 | 6.1 | 13.0 | 0.00 | 0.00 | 0.00 | 62 | 1015.3 |
| 20260507142005 | 62 | 132 | 8.7 | 13.0 | 0.00 | 0.00 | 0.00 | 62 | 1015.3 |
| 20260507140005 | 62 | 133 | 5.2 | 13.0 | 0.00 | 0.00 | 0.00 | 62 | 1015.5 |
| 20260507135005 | 62 | 139 | 7.8 | 13.0 | 0.00 | 0.00 | 0.00 | 62 | 1015.5 |
| 20260507134004 | 62 | 143 | 3.5 | 13.0 | 0.00 | 0.00 | 0.00 | 58 | 1015.5 |
| 20260507133005 | 62 | 131 | 7.0 | 13.0 | 0.00 | 0.00 | 0.00 | 65 | 1015.5 |
| 20260507132006 | 62 | 131 | 8.7 | 13.0 | 0.00 | 0.00 | 0.00 | 64 | 1015.5 |
| 20260507131004 | 61 | 138 | 6.1 | 13.0 | 0.00 | 0.00 | 0.00 | 65 | 1015.5 |
| 20260507130005 | 60 | 144 | 5.2 | 10.4 | 0.00 | 0.00 | 0.00 | 64 | 1015.5 |
| 20260507124004 | 60 | 142 | 4.3 | 13.0 | 0.00 | 0.00 | 0.00 | 67 | 1015.6 |
| 20260507123006 | 60 | 131 | 8.7 | 13.0 | 0.00 | 0.00 | 0.00 | 68 | 1015.7 |
| 20260507120005 | 62 | 143 | 6.1 | 10.4 | 0.00 | 0.00 | 0.00 | 69 | 1015.8 |
| 20260507115004 | 62 | 140 | 6.1 | 13.9 | 0.00 | 0.00 | 0.00 | 69 | 1015.8 |
| 20260507113005 | 62 | 129 | 7.0 | 13.9 | 0.00 | 0.00 | 0.00 | 69 | 1015.6 |
| 20260507112004 | 62 | 131 | 7.8 | 14.8 | 0.00 | 0.00 | 0.00 | 68 | 1015.7 |
| 20260507111007 | 62 | 130 | 6.1 | 13.0 | 0.00 | 0.00 | 0.00 | 69 | 1015.7 |
| 20260507110005 | 61 | 130 | 7.0 | 10.4 | 0.00 | 0.00 | 0.00 | 69 | 1015.8 |
| 20260507105004 | 61 | 147 | 6.1 | 12.2 | 0.00 | 0.00 | 0.00 | 70 | 1015.9 |
| 20260507104004 | 60 | 126 | 7.0 | 12.2 | 0.00 | 0.00 | 0.00 | 73 | 1015.8 |
| 20260507103004 | 60 | 129 | 8.7 | 12.2 | 0.00 | 0.00 | 0.00 | 70 | 1015.8 |
| 20260507101004 | 60 | 118 | 7.0 | 14.8 | 0.00 | 0.00 | 0.00 | 74 | 1015.9 |
| 20260507100004 | 59 | 135 | 6.1 | 13.0 | 0.00 | 0.00 | 0.00 | 74 | 1015.8 |
| 20260507095004 | 59 | 142 | 7.8 | 15.6 | 0.00 | 0.00 | 0.00 | 76 | 1015.8 |
| 20260507094004 | 59 | 129 | 6.1 | 12.2 | 0.00 | 0.00 | 0.00 | 76 | 1015.8 |
| 20260507093006 | 58 | 135 | 8.7 | 13.0 | 0.00 | 0.00 | 0.00 | 76 | 1015.7 |
| 20260507092004 | 57 | 144 | 4.3 | 10.4 | 0.00 | 0.00 | 0.00 | 75 | 1015.9 |
| 20260507090007 | 58 | 137 | 5.2 | 10.4 | 0.00 | 0.00 | 0.00 | 80 | 1015.8 |
| 20260507085006 | 57 | 130 | 7.8 | 10.4 | 0.00 | 0.00 | 0.00 | 79 | 1015.8 |
| 20260507084006 | 57 | 130 | 6.1 | 13.0 | 0.00 | 0.00 | 0.00 | 79 | 1015.7 |
| 20260507082006 | 55 | 124 | 6.1 | 13.0 | 0.00 | 0.00 | 0.00 | 82 | 1015.6 |
| 20260507081006 | 54 | 145 | 5.2 | 12.2 | 0.00 | 0.00 | 0.00 | 83 | 1015.5 |
| 20260507080006 | 54 | 131 | 5.2 | 13.0 | 0.00 | 0.00 | 0.00 | 83 | 1015.5 |
| 20260507075006 | 54 | 132 | 8.7 | 13.0 | 0.00 | 0.00 | 0.00 | 83 | 1015.4 |
| 20260507074006 | 53 | 133 | 6.1 | 12.2 | 0.00 | 0.00 | 0.00 | 85 | 1015.4 |
| 20260507073006 | 53 | 132 | 7.0 | 13.0 | 0.00 | 0.00 | 0.00 | 87 | 1015.3 |
| 20260507072006 | 52 | 130 | 7.8 | 13.0 | 0.00 | 0.00 | 0.00 | 88 | 1015.2 |
| 20260507071006 | 52 | 129 | 7.8 | 13.0 | 0.00 | 0.00 | 0.00 | 92 | 1015.2 |
| 20260507070010 | 51 | 145 | 6.1 | 10.4 | 0.00 | 0.00 | 0.00 | 95 | 1015.1 |
| 20260507065007 | 50 | 142 | 6.1 | 10.4 | 0.00 | 0.00 | 0.00 | 96 | 1015.1 |
| 20260507063006 | 47 | 138 | 1.7 | 4.3 | 0.00 | 0.00 | 0.00 | 96 | 1015.2 |
| 20260507062006 | 46 | 136 | 1.7 | 2.6 | 0.00 | 0.00 | 0.00 | 96 | 1015.2 |
| 20260507061006 | 46 | 243 | 0.9 | 1.7 | 0.00 | 0.00 | 0.00 | 96 | 1015.2 |
| 20260507060006 | 45 | 267 | 0.9 | 1.7 | 0.00 | 0.00 | 0.00 | 96 | 1015.1 |
| 20260507055006 | 44 | 291 | 0.0 | 0.9 | 0.00 | 0.00 | 0.00 | 96 | 1015.0 |
| 20260507053006 | 42 | 291 | 0.0 | 0.0 | 0.00 | 0.00 | 0.00 | 95 | 1015.1 |
| 20260507052006 | 42 | 291 | 0.0 | 0.0 | 0.00 | 0.00 | 0.00 | 95 | 1015.0 |
| 20260507050006 | 41 | 291 | 0.0 | 0.0 | 0.00 | 0.00 | 0.00 | 93 | 1014.9 |
| 20260507045006 | 42 | 291 | 0.0 | 0.0 | 0.00 | 0.00 | 0.00 | 93 | 1014.8 |
| 20260507044007 | 42 | 291 | 0.0 | 0.0 | 0.00 | 0.00 | 0.00 | 93 | 1014.8 |
| 20260507043006 | 42 | 291 | 0.0 | 0.0 | 0.00 | 0.00 | 0.00 | 93 | 1014.7 |
| 20260507042006 | 42 | 291 | 0.0 | 0.0 | 0.00 | 0.00 | 0.00 | 93 | 1014.7 |
| 20260507041006 | 42 | 291 | 0.0 | 0.0 | 0.00 | 0.00 | 0.00 | 92 | 1014.6 |
| 20260507040006 | 42 | 291 | 0.0 | 0.0 | 0.00 | 0.00 | 0.00 | 92 | 1014.6 |
| 20260507035006 | 43 | 291 | 0.0 | 0.0 | 0.00 | 0.00 | 0.00 | 92 | 1014.6 |
| 20260507034006 | 43 | 291 | 0.0 | 0.0 | 0.00 | 0.00 | 0.00 | 93 | 1014.6 |
| 20260507031005 | 43 | 291 | 0.0 | 0.0 | 0.00 | 0.00 | 0.00 | 92 | 1014.5 |